Location: Follega
(52.8850°N, 5.7362°E)
Time: 21:10:48
(UTC+00:00)

BREEZE-M R/B - Pass Details

Date: 01 June 2020
Orbit: 311 x 4533 km, 49.7° (Epoch: 04 July)

Event Time Altitude Azimuth Distance (km) Brightness Sun altitude
Rises 23:25:31 0° 224° (SW) 5,076 7.3 -14.9°
Enters shadow 23:25:44 - 223° (SW) 4,997 7.3 -14.9°
Exits shadow 23:31:50 15° 210° (SSW) 2,715 5.8 -14.9°
Maximum altitude 23:36:21 29° 160° (SSE) 1,410 4.3 -14.9°
Drops below altitude 10° 23:39:53 10° 98° (E) 1,832 5.4 -14.9°
Sets 23:41:42 0° 85° (E) 2,479 6.3 -14.9°
